GW6293 Weather Reports


time (UTC)temp
C
wind
direction
speed
KPH
gust
KPH
rain 1hr
cm
rain 24hr
cm
rain mn
cm
humidity
%
barometer
mb
20260504032941 26 357 0.0 3.2 0.00 0.00 0.00 80 1011.4
20260504030941 27 269 0.0 1.6 0.00 0.00 0.00 80 1011.0
20260504025942 27 212 0.0 1.6 0.00 0.00 0.00 80 1011.1
20260504024941 27 119 0.0 3.2 0.00 0.00 0.00 80 1010.9
20260504023941 27 332 3.2 3.2 0.00 0.00 0.00 80 1010.8
20260504022942 27 269 0.0 3.2 0.00 0.00 0.00 80 1011.0
20260504021941 27 74 0.0 3.2 0.00 0.00 0.00 80 1010.8
20260504020941 28 261 0.0 1.6 0.00 0.00 0.00 79 1010.8
20260504015942 28 315 0.0 3.2 0.00 0.00 0.00 79 1010.6
20260504014942 28 53 0.0 3.2 0.00 0.00 0.00 79 1010.5
20260504011942 28 92 0.0 4.8 0.00 0.00 0.00 78 1010.3
20260504010941 28 227 3.2 8.0 0.00 0.00 0.00 78 1010.0
20260504005942 28 168 4.8 9.7 0.00 0.00 0.00 77 1010.1
20260504004942 29 267 3.2 6.4 0.00 0.00 0.00 76 1010.1
20260504003942 29 244 3.2 9.7 0.00 0.00 0.00 75 1009.8
20260504002941 30 232 1.6 9.7 0.00 0.00 0.00 73 1009.9
20260504001941 30 239 1.6 9.7 0.00 0.00 0.00 70 1009.8
20260504000942 30 278 6.4 8.0 0.00 0.00 0.00 69 1009.6
20260503235941 31 276 1.6 8.0 0.00 0.00 0.00 65 1009.5
20260503232942 31 231 0.0 8.0 0.00 0.00 0.00 56 1009.4
20260503231942 31 258 0.0 12.9 0.00 0.00 0.00 63 1009.5
20260503225942 30 212 1.6 16.1 0.00 0.00 0.00 67 1009.2
20260503224942 31 219 3.2 16.1 0.00 0.00 0.00 64 1009.2
20260503223942 31 260 3.2 19.3 0.00 0.00 0.00 61 1009.3
20260503221941 31 160 4.8 12.9 0.00 0.00 0.00 58 1009.4
20260503220942 32 235 3.2 11.3 0.00 0.00 0.00 56 1009.4
20260503215941 32 150 8.0 12.9 0.00 0.00 0.00 52 1009.5
20260503214942 33 161 9.7 11.3 0.00 0.00 0.00 48 1009.6
20260503213942 32 169 8.0 12.9 0.00 0.00 0.00 49 1009.9
20260503212946 33 310 4.8 12.9 0.00 0.00 0.00 52 1009.6
20260503211941 32 244 1.6 12.9 0.00 0.00 0.00 48 1009.7
20260503210942 32 173 4.8 11.3 0.00 0.00 0.00 44 1009.8
20260503205942 32 165 9.7 16.1 0.00 0.00 0.00 45 1009.9
20260503204942 32 225 4.8 14.5 0.00 0.00 0.00 48 1010.0
20260503203942 32 303 1.6 14.5 0.00 0.00 0.00 47 1010.0
20260503202941 32 138 4.8 11.3 0.00 0.00 0.00 50 1010.4
20260503201941 32 162 6.4 17.7 0.00 0.00 0.00 48 1010.4
20260503200942 33 82 3.2 16.1 0.00 0.00 0.00 48 1010.5
20260503195941 32 295 3.2 9.7 0.00 0.00 0.00 48 1010.7
20260503194942 32 115 3.2 16.1 0.00 0.00 0.00 47 1010.9
20260503192941 32 149 11.3 14.5 0.00 0.00 0.00 45 1011.1
20260503185941 32 231 8.0 20.9 0.00 0.00 0.00 49 1011.4
20260503184941 32 247 3.2 17.7 0.00 0.00 0.00 47 1011.6
20260503183941 32 124 3.2 14.5 0.00 0.00 0.00 49 1011.5
20260503181942 32 153 11.3 14.5 0.00 0.00 0.00 52 1011.7
20260503180942 31 193 1.6 16.1 0.00 0.00 0.00 55 1011.8
20260503175941 31 151 8.0 19.3 0.00 0.00 0.00 57 1012.0
20260503174942 31 278 0.0 17.7 0.00 0.00 0.00 56 1012.0
20260503173942 31 232 6.4 17.7 0.00 0.00 0.00 57 1012.0
20260503172942 31 225 3.2 14.5 0.00 0.00 0.00 58 1012.2
20260503171942 31 234 3.2 17.7 0.00 0.00 0.00 60 1012.0
20260503170942 30 197 3.2 17.7 0.00 0.00 0.00 61 1012.4
20260503150941 30 215 4.8 9.7 0.00 0.00 0.00 69 1012.5
20260503080942 23 315 0.0 1.6 0.00 0.00 0.00 90 1010.9
20260503072941 24 224 0.0 1.6 0.00 0.00 0.00 88 1011.0
20260503071941 24 243 0.0 1.6 0.00 0.00 0.00 87 1010.9
20260503054929 25 353 0.0 1.6 0.00 0.00 0.00 85 1010.8
20260503053929 25 231 0.0 1.6 0.00 0.00 0.00 84 1011.1
20260503052930 25 219 1.6 1.6 0.00 0.00 0.00 84 1011.0
20260503051930 26 333 0.0 3.2 0.00 0.00 0.00 83 1011.0
20260503045930 26 205 0.0 3.2 0.00 0.00 0.00 83 1011.0
20260503043929 26 218 0.0 3.2 0.00 0.00 0.00 81 1010.9
20260503042930 26 213 1.6 3.2 0.00 0.00 0.00 82 1011.0
20260503040930 26 309 0.0 1.6 0.00 0.00 0.00 82 1010.8
20260503035929 26 304 0.0 3.2 0.00 0.00 0.00 82 1010.8
20260503034929 26 251 1.6 3.2 0.00 0.00 0.00 81 1010.8
20260503033929 26 240 0.0 3.2 0.00 0.00 0.00 81 1010.5